W1HS Weather Reports


Display with metric or nautical units.
time (UTC)temp
F
wind
direction
speed
MPH
gust
MPH
rain 1hr
in
rain 24hr
in
rain mn
in
humidity
%
barometer
mb
20260509031218 44 225 1.0 3.0 0.00 0.00 0.00 64 992.5
20260509030218 43 225 1.0 3.0 0.00 0.00 0.00 65 992.3
20260509025218 43 0.0 0.0 0.00 0.00 0.00 66 992.2
20260509024218 43 0.0 0.0 0.00 0.00 0.00 66 992.1
20260509023218 44 0.0 2.0 0.00 0.00 0.00 66 992.1
20260509022219 44 0.0 1.0 0.00 0.00 0.00 65 992.0
20260509021218 44 0.0 3.0 0.00 0.00 0.00 65 992.0
20260509020218 45 0.0 1.0 0.00 0.00 0.00 64 991.9
20260509015218 45 0.0 0.0 0.00 0.00 0.00 63 991.8
20260509014218 45 0.0 3.0 0.00 0.00 0.00 63 991.7
20260509013218 45 0.0 1.0 0.00 0.00 0.00 63 991.5
20260509012218 46 0.0 2.0 0.00 0.00 0.00 62 991.5
20260509011221 46 248 2.0 3.0 0.00 0.00 0.00 62 991.3
20260509010218 46 248 2.0 3.0 0.00 0.00 0.00 62 991.1
20260509005218 46 248 1.0 3.0 0.00 0.00 0.00 62 990.8
20260509004218 46 0.0 0.0 0.00 0.00 0.00 62 990.7
20260509003218 46 248 1.0 5.0 0.00 0.00 0.00 62 990.6
20260509002223 47 248 2.0 5.0 0.00 0.00 0.00 60 990.4
20260509001220 47 248 4.0 7.0 0.00 0.00 0.00 60 990.4
20260509000219 47 248 2.0 4.0 0.00 0.00 0.00 60 990.3
20260508235218 47 270 3.0 4.0 0.00 0.00 0.00 60 990.2
20260508234220 47 270 4.0 6.0 0.00 0.00 0.00 59 990.0
20260508233218 48 248 4.0 8.0 0.00 0.00 0.00 59 989.9
20260508232218 48 270 5.0 9.0 0.00 0.00 0.00 59 989.7
20260508231218 48 248 5.0 7.0 0.00 0.00 0.00 58 989.7
20260508230408 49 248 5.0 8.0 0.00 0.00 0.00 58 989.6
20260508230124 48 248 4.0 6.0 0.00 0.00 0.00 57 989.6
20260508225119 49 248 4.0 7.0 0.00 0.00 0.00 58 989.6
20260508224120 49 270 8.0 12.0 0.00 0.00 0.00 58 989.6
20260508223118 49 248 8.0 12.0 0.00 0.00 0.00 59 989.5
20260508222118 49 225 5.0 10.0 0.00 0.00 0.00 57 989.4
20260508221118 49 248 6.0 8.0 0.00 0.00 0.00 56 989.4
20260508220118 51 248 10.0 13.0 0.00 0.00 0.00 53 989.4
20260508215122 51 248 12.0 14.0 0.00 0.00 0.00 52 989.3
20260508214119 52 225 10.0 13.0 0.00 0.00 0.00 51 989.3
20260508213119 51 225 8.0 10.0 0.00 0.00 0.00 52 989.3
20260508212118 52 270 9.0 13.0 0.00 0.00 0.00 47 989.0
20260508211118 51 248 4.0 8.0 0.00 0.00 0.00 46 989.0
20260508210118 52 293 11.0 15.0 0.00 0.00 0.00 41 988.9
20260508205118 53 0.0 1.0 0.00 0.00 0.00 41 988.8
20260508204305 53 293 7.0 11.0 0.00 0.00 0.00 39 988.8
20260508203119 53 270 8.0 11.0 0.00 0.00 0.00 39 988.7
20260508202125 52 315 4.0 8.0 0.00 0.00 0.00 41 988.6
20260508201337 52 338 1.0 3.0 0.00 0.00 0.00 38 988.5
20260508200629 53 293 4.0 7.0 0.00 0.00 0.00 39 988.5
20260508200019 52 293 3.0 8.0 0.00 0.00 0.00 39 988.5
20260508195343 52 270 5.0 8.0 0.00 0.00 0.00 42 988.6
20260508195341 52 293 7.0 13.0 0.00 0.00 0.00 39 988.5
20260508193530 52 293 3.0 6.0 0.00 0.00 0.00 43 988.5
20260508192626 52 270 8.0 10.0 0.00 0.00 0.00 39 988.5
20260508191820 51 293 3.0 8.0 0.00 0.00 0.00 40 988.5
20260508191027 51 293 2.0 3.0 0.00 0.00 0.00 40 988.5
20260508190425 51 293 6.0 9.0 0.00 0.00 0.00 38 988.5
20260508185420 52 315 1.0 3.0 0.00 0.00 0.00 39 988.5
20260508184518 51 270 9.0 12.0 0.00 0.00 0.00 39 988.6
20260508184515 51 293 7.0 10.0 0.00 0.00 0.00 40 988.8
20260508181718 51 293 10.0 14.0 0.00 0.00 0.00 39 988.8
20260508180718 51 293 7.0 9.0 0.00 0.00 0.00 39 988.9
20260508175826 52 293 7.0 13.0 0.00 0.00 0.00 39 988.9
20260508175222 52 270 7.0 10.0 0.00 0.00 0.00 41 988.8
20260508174742 50 270 9.0 12.0 0.00 0.00 0.00 41 988.9
20260508174740 51 293 9.0 13.0 0.00 0.00 0.00 41 989.0
20260508173023 51 293 9.0 14.0 0.00 0.00 0.00 39 989.0
20260508171820 52 315 9.0 13.0 0.00 0.00 0.00 38 989.0
20260508170831 51 315 8.0 12.0 0.00 0.00 0.00 41 989.0
20260508170526 50 270 8.0 12.0 0.00 0.00 0.00 42 989.0
20260508165542 50 338 7.0 13.0 0.00 0.00 0.00 44 989.1
20260508164627 49 315 9.0 12.0 0.00 0.00 0.00 42 989.1
20260508163927 50 293 9.0 15.0 0.00 0.00 0.00 41 989.2
20260508163128 50 293 2.0 4.0 0.00 0.00 0.00 41 989.1
20260508162629 50 270 7.0 10.0 0.00 0.00 0.00 44 989.3
20260508161731 49 293 4.0 8.0 0.00 0.00 0.00 42 989.1
20260508161525 49 315 6.0 10.0 0.00 0.00 0.00 43 989.1
20260508160520 49 315 3.0 5.0 0.00 0.00 0.00 43 989.1
20260508155519 50 293 5.0 10.0 0.00 0.00 0.00 42 989.1
20260508154520 51 293 8.0 11.0 0.00 0.00 0.00 40 989.1
20260508153519 51 270 10.0 17.0 0.00 0.00 0.00 37 988.9
20260508152519 52 270 10.0 14.0 0.00 0.00 0.00 39 989.0
20260508151518 51 338 9.0 13.0 0.00 0.00 0.00 37 988.9
20260508150520 50 293 5.0 12.0 0.00 0.00 0.00 39 988.9
20260508145519 49 293 5.0 8.0 0.00 0.00 0.00 42 989.1
20260508144528 49 293 4.0 7.0 0.00 0.00 0.00 43 989.1
20260508143521 49 0 4.0 8.0 0.00 0.00 0.00 44 989.2
20260508142522 48 270 11.0 14.0 0.00 0.00 0.00 42 989.3
20260508141520 49 293 7.0 12.0 0.00 0.00 0.00 42 989.2
20260508140519 49 315 11.0 18.0 0.00 0.00 0.00 39 989.3
20260508135520 49 270 8.0 12.0 0.00 0.00 0.00 44 989.4
20260508134529 49 293 7.0 13.0 0.00 0.00 0.00 48 989.4
20260508133519 48 270 11.0 17.0 0.00 0.00 0.00 47 989.4
20260508132520 48 338 3.0 8.0 0.00 0.00 0.00 51 989.5
20260508131519 47 315 3.0 6.0 0.00 0.00 0.00 54 989.5
20260508130519 46 315 5.0 8.0 0.00 0.00 0.00 53 989.5
20260508125519 46 225 2.0 4.0 0.00 0.00 0.00 54 989.6
20260508124519 45 248 4.0 7.0 0.00 0.00 0.00 56 989.5
20260508123519 45 293 4.0 7.0 0.00 0.00 0.00 57 989.6
20260508122524 44 270 4.0 7.0 0.00 0.00 0.00 57 989.5
20260508121519 43 270 4.0 8.0 0.00 0.00 0.00 62 989.5
20260508120519 43 270 2.0 4.0 0.00 0.00 0.00 61 989.6
20260508115519 43 248 3.0 3.0 0.00 0.00 0.00 61 989.6
20260508114521 42 248 5.0 8.0 0.00 0.00 0.00 62 989.6
20260508113519 42 270 2.0 4.0 0.00 0.00 0.00 62 989.6
20260508112519 40 0.0 1.0 0.00 0.00 0.00 64 989.4
20260508111519 39 0.0 1.0 0.00 0.00 0.00 66 989.1
20260508110519 39 248 1.0 3.0 0.00 0.00 0.00 67 989.1
20260508105521 39 248 3.0 6.0 0.00 0.00 0.00 68 989.2
20260508104632 39 270 3.0 6.0 0.00 0.00 0.00 67 989.1
20260508104419 39 270 2.0 4.0 0.00 0.00 0.00 68 989.0
20260508103419 39 270 2.0 4.0 0.00 0.00 0.00 66 988.8
20260508102419 39 270 1.0 2.0 0.00 0.00 0.00 66 988.7
20260508101421 39 270 1.0 4.0 0.00 0.00 0.00 67 988.5
20260508100421 38 293 2.0 4.0 0.00 0.00 0.00 67 988.4
20260508095421 39 293 2.0 3.0 0.00 0.00 0.00 66 988.4
20260508094419 39 293 3.0 6.0 0.00 0.00 0.00 64 988.4
20260508093419 39 293 1.0 2.0 0.00 0.00 0.00 64 988.3
20260508092419 39 0.0 0.0 0.00 0.00 0.00 64 988.3
20260508091420 39 293 1.0 2.0 0.00 0.00 0.00 63 988.3
20260508090419 39 293 2.0 3.0 0.00 0.00 0.00 64 988.2
20260508085424 39 0.0 0.0 0.00 0.00 0.00 64 988.2
20260508084419 39 293 1.0 2.0 0.00 0.00 0.00 64 988.3
20260508083419 39 293 1.0 2.0 0.00 0.00 0.00 65 988.3
20260508082419 38 293 1.0 2.0 0.00 0.00 0.00 65 988.3
20260508081421 38 293 2.0 3.0 0.00 0.00 0.00 66 988.1
20260508080419 38 0.0 1.0 0.00 0.00 0.00 66 988.1
20260508075420 39 293 2.0 3.0 0.00 0.00 0.00 65 987.9
20260508074520 39 293 1.0 3.0 0.00 0.00 0.00 64 987.8
20260508073519 38 0.0 0.0 0.00 0.00 0.00 65 987.6
20260508072519 38 0.0 0.0 0.00 0.00 0.00 67 987.6
20260508071627 38 0.0 0.0 0.00 0.00 0.00 67 987.7
20260508070919 38 0.0 0.0 0.00 0.00 0.00 68 987.8
20260508065919 37 0.0 0.0 0.00 0.00 0.00 68 987.7
20260508064921 38 0.0 0.0 0.00 0.00 0.00 66 987.8
20260508064026 39 0.0 0.0 0.00 0.00 0.00 64 988.0
20260508063019 39 0.0 1.0 0.00 0.00 0.00 63 988.0
20260508062018 40 293 1.0 2.0 0.00 0.00 0.00 62 988.0
20260508061019 40 0.0 0.0 0.00 0.00 0.00 60 988.1
20260508060019 41 0.0 0.0 0.00 0.00 0.00 58 988.0
20260508055030 41 0.0 0.0 0.00 0.00 0.00 58 987.8
20260508054018 41 0.0 0.0 0.00 0.00 0.00 59 987.8
20260508053018 41 0.0 0.0 0.00 0.00 0.00 59 988.0
20260508052125 42 0.0 0.0 0.00 0.00 0.00 57 988.2
20260508051019 42 293 2.0 2.0 0.00 0.00 0.00 57 988.4
20260508050019 41 293 1.0 2.0 0.00 0.00 0.00 59 988.4
20260508045028 41 0.0 0.0 0.00 0.00 0.00 58 988.3
20260508044019 42 0.0 0.0 0.00 0.00 0.00 58 988.3
20260508043019 43 0.0 0.0 0.00 0.00 0.00 56 988.4
20260508042023 43 293 1.0 2.0 0.00 0.00 0.00 56 988.4
20260508041027 43 293 1.0 5.0 0.00 0.00 0.00 56 988.4
20260508040124 42 293 2.0 3.0 0.00 0.00 0.00 57 988.5
20260508035319 43 293 1.0 2.0 0.00 0.00 0.00 57 988.5
20260508034319 43 0.0 0.0 0.00 0.00 0.00 56 988.4
20260508033319 43 293 2.0 4.0 0.00 0.00 0.00 55 988.5
20260508032320 44 293 1.0 2.0 0.00 0.00 0.00 53 988.6
20260508031318 45 293 1.0 2.0 0.00 0.00 0.00 51 988.6